User: anonymous   Login
Location: Caltech
(34.1382°N, 118.1253°W)
Time: 08:28:38
(UTC-07:00)
Language:

GPS 2-04 Rocket1 - Orbit

View from above orbital plane
View from above orbital plane
View from above satellite
View from above satellite

Ground track
Ground track

The orbit data is extracted from the following two-line orbital elements,

1 20303U 89085B   16274.27364998  .00006271  00000-0  22943-3 0  9995
2 20303  35.6295 221.0924 0109648  35.8959 324.9074 15.21961469460909
Epoch (UTC): 30 September 2016 06:34:03
Eccentricity: 0.0109648
inclination: 35.6295°
perigee height: 424 km
apogee height: 575 km
right ascension of ascending node: 221.0924°
argument of perigee: 35.8959°
revolutions per day: 15.21961469
mean anomaly at epoch: 324.9074°
orbit number at epoch: 46090

The dashed part of the orbit path shows where the satellite is in the earth's shadow,  

DLR